カタログに戻る

ATLAS 5 CENTAUR DEB

運用中HEO
NORAD 44848·DEBRIS·🇺🇸 United States

打ち上げ Sep 17, 2014 から Cape Canaveral Space Force Station

Loading…

次のパス (今後24時間)

TLE

経年Source: Space-Track

元期: Sep 4, 2026, 02:44 UTC

1 44848U 14055CG  26247.11437437 -.00000163  00000-0  00000-0 0  9995
2 44848  20.7682 110.4015 4945653 225.3581  81.7736  1.88592327 48750

AllMySatでATLAS 5 CENTAUR DEBをリアルタイム追跡

Download on the App Store